Weather History for Girona, Spain

Change the Weather History Date:

Friday, November 9, 2012

  Actual Average Record
Temperature  
Mean Temperature 56 °F -  
Max Temperature 66 °F 59 °F 73 °F (2006)
Min Temperature 46 °F 40 °F 37 °F (1999)
Degree Days  
Heating Degree Days 9    
Growing Degree Days 6 (Base 50)    
Moisture  
Dew Point 47 °F    
Average Humidity 77    
Maximum Humidity 100    
Minimum Humidity 45    
Precipitation  
Precipitation 0.00 in 0.09 in - ()
Sea Level Pressure  
Sea Level Pressure 29.98 in    
Wind  
Wind Speed 2 mph ()    
Max Wind Speed 7 mph    
Max Gust Speed -    
Visibility 6.4 miles    
Events Rain    
Averages and records for this station are not official NWS values.
T = Trace of Precipitation, MM = Missing Value Source: Averaged Metar Reports

Daily Weather History Graph

Daily Weather History Graph

Search for Another Location

Airport:

Trip Planner

Search our weather history database for the weather conditions in past years. The results will help you decide how hot, cold, wet, or windy it might be!

Date:

Astronomy

Nov. 09, 2012 Rise Set
Actual Time 7:31 AM CET 5:33 PM CET
Civil Twilight 7:01 AM CET 6:03 PM CET
Nautical Twilight 6:28 AM CET 6:36 PM CET
Astronomical Twilight 5:55 AM CET 7:09 PM CET
Moon 2:09 AM CET (11/9) 2:42 PM CET (11/9)
Length of Visible Light 11h 01m
Length of Day
10h 01m
Waning Crescent, 25% of the Moon is Illuminated
Nov 9
Waning Crescent
Nov 13
New
Nov 20
First Quarter
Nov 28
Full
Dec 6
Last Quarter

Hourly Weather History & Observations

Time (CET) Temp. Windchill Dew Point Humidity Pressure Visibility Wind Dir Wind Speed Gust Speed Precip Events Conditions
12:00 AM 50.0 °F - 46.4 °F 87% 30.09 in 6.2 mi Calm Calm - N/A   Mostly Cloudy
12:30 AM 50.0 °F - 46.4 °F 87% 30.09 in 6.2 mi South 1.2 mph - N/A   Scattered Clouds
1:00 AM 50 °F - 46 °F 82% 30.07 in - Calm Calm - -  
1:00 AM 48.2 °F - 44.6 °F 87% 30.06 in 6.2 mi Calm Calm - N/A   Scattered Clouds
1:30 AM 48.2 °F - 46.4 °F 93% 30.09 in 6.2 mi Variable 1.2 mph - N/A   Scattered Clouds
2:00 AM 46.4 °F - 44.6 °F 93% 30.06 in 6.2 mi Calm Calm - N/A   Scattered Clouds
2:30 AM 48.2 °F - 48.2 °F 100% 30.06 in 6.2 mi NNE 1.2 mph - N/A   Scattered Clouds
3:00 AM 46.4 °F - 46.4 °F 100% 30.06 in 6.2 mi West 2.3 mph - N/A   Scattered Clouds
3:30 AM 46.4 °F - 46.4 °F 100% 30.04 in 6.2 mi NW 1.2 mph - N/A   Scattered Clouds
4:00 AM 48.2 °F - 46.4 °F 93% 30.04 in 6.2 mi Variable 2.3 mph - N/A   Scattered Clouds
4:30 AM 46.4 °F - 44.6 °F 93% 30.04 in 6.2 mi Calm Calm - N/A   Scattered Clouds
5:00 AM 46.4 °F - 46.4 °F 100% 30.01 in 6.2 mi Calm Calm - N/A   Scattered Clouds
5:30 AM 46.4 °F - 44.6 °F 93% 30.01 in 6.2 mi Calm Calm - N/A   Scattered Clouds
6:00 AM 46.4 °F - 44.6 °F 93% 30.01 in 6.2 mi Calm Calm - N/A   Scattered Clouds
6:30 AM 46.4 °F - 44.6 °F 93% 30.01 in 6.2 mi Calm Calm - N/A   Partly Cloudy
7:00 AM 47 °F - 43 °F 81% 30.00 in - NE 5.8 mph - -  
7:00 AM 46.4 °F 42.9 °F 44.6 °F 93% 30.01 in 6.2 mi NE 6.9 mph - N/A   Partly Cloudy
7:30 AM 46.4 °F 45.2 °F 44.6 °F 93% 30.01 in 6.2 mi NNE 3.5 mph - N/A   Partly Cloudy
8:00 AM 46.4 °F - 44.6 °F 93% 30.01 in 6.2 mi Variable 1.2 mph - N/A   Partly Cloudy
8:30 AM 48.2 °F - 46.4 °F 93% 29.98 in 6.2 mi NNE 2.3 mph - N/A   Partly Cloudy
9:00 AM 51.8 °F - 46.4 °F 82% 29.98 in 6.2 mi Variable 2.3 mph - N/A   Partly Cloudy
9:30 AM 55.4 °F - 46.4 °F 72% 30.01 in 6.2 mi Calm Calm - N/A   Partly Cloudy
10:30 AM 53.6 °F - 46.4 °F 77% 30.04 in 6.2 mi South 4.6 mph - N/A   Partly Cloudy
11:00 AM 55.4 °F - 46.4 °F 72% 30.01 in 6.2 mi Variable 2.3 mph - N/A   Scattered Clouds
11:30 AM 57.2 °F - 46.4 °F 67% 30.04 in 6.2 mi Calm Calm - N/A   Scattered Clouds
12:00 PM 59.0 °F - 42.8 °F 55% 30.01 in 6.2 mi Variable 1.2 mph - N/A   Scattered Clouds
12:30 PM 59.0 °F - 44.6 °F 59% 29.98 in 6.2 mi Variable 2.3 mph - N/A   Scattered Clouds
1:00 PM 62 °F - 47 °F 49% 29.95 in 12 mi SW 1.2 mph - - Rain Light Drizzle
1:00 PM 59.0 °F - 44.6 °F 59% 29.95 in 6.2 mi Calm Calm - N/A   Light Drizzle
1:30 PM 60.8 °F - 46.4 °F 59% 29.95 in 6.2 mi Variable 2.3 mph - N/A   Light Drizzle
2:00 PM 62.6 °F - 50.0 °F 63% 29.95 in 6.2 mi Variable 2.3 mph - N/A   Light Drizzle
2:30 PM 64.4 °F - 48.2 °F 56% 29.95 in 6.2 mi West 3.5 mph - N/A   Light Drizzle
3:30 PM 64.4 °F - 46.4 °F 52% 29.95 in 6.2 mi SSW 5.8 mph - N/A   Scattered Clouds
4:00 PM 64.4 °F - 42.8 °F 45% 29.92 in 6.2 mi SSE 6.9 mph - N/A   Scattered Clouds
4:30 PM 62.6 °F - 44.6 °F 52% 29.92 in 6.2 mi South 3.5 mph - N/A   Scattered Clouds
5:00 PM 60.8 °F - 46.4 °F 59% 29.92 in 6.2 mi South 3.5 mph - N/A   Scattered Clouds
5:30 PM 60.8 °F - 46.4 °F 59% 29.92 in 6.2 mi Variable 1.2 mph - N/A   Scattered Clouds
6:00 PM 59.0 °F - 46.4 °F 63% 29.92 in 6.2 mi SW 3.5 mph - N/A   Scattered Clouds
6:30 PM 57.2 °F - 46.4 °F 67% 29.92 in 6.2 mi South 6.9 mph - N/A   Scattered Clouds
7:00 PM 59 °F - 47 °F 56% 29.91 in 12 mi South 6.9 mph - -   Mostly Cloudy
7:00 PM 59.0 °F - 46.4 °F 63% 29.92 in 6.2 mi South 5.8 mph - N/A   Scattered Clouds
7:30 PM 57.2 °F - 46.4 °F 67% 29.92 in 6.2 mi South 6.9 mph - N/A   Scattered Clouds
8:00 PM 57.2 °F - 48.2 °F 72% 29.92 in 6.2 mi SW 3.5 mph - N/A   Scattered Clouds
8:30 PM 55.4 °F - 48.2 °F 77% 29.92 in 6.2 mi Calm Calm - N/A   Scattered Clouds
9:00 PM 55.4 °F - 50.0 °F 82% 29.89 in 6.2 mi WSW 3.5 mph - N/A   Scattered Clouds
9:30 PM 57.2 °F - 51.8 °F 82% 29.89 in 6.2 mi SW 3.5 mph - N/A   Scattered Clouds
10:00 PM 55.4 °F - 51.8 °F 88% 29.89 in 6.2 mi Calm Calm - N/A   Scattered Clouds
10:30 PM 55.4 °F - 51.8 °F 88% 29.89 in 6.2 mi WSW 1.2 mph - N/A   Scattered Clouds
11:00 PM 55.4 °F - 51.8 °F 88% 29.89 in 6.2 mi Calm Calm - N/A   Drizzle
11:30 PM 55.4 °F - 53.6 °F 94% 29.86 in 6.2 mi Calm Calm - N/A   Scattered Clouds